Home > Weather > Fürstenfeldbruck > Past weeks

Flag for Germany Weather for the Past 2 Weeks in Fürstenfeldbruck, Bavaria, Germany

Now
36 °F

Sunny.


Feels Like: 25 °F
Forecast: 29 / 42 °F
Wind: 17 mph from West

Location: Oberpfaffenhofen

Current Time: Feb 11, 2016 at 10:52:25 AM

Latest Report: Feb 11, 2016 at 10:20 AM


Visibility: 10 mi

Pressure: 29.74 "Hg (27.88 "Hg at 520m altitude)

Humidity: 65%

Dew point: 25 °F

Location of FürstenfeldbruckLocation

Historic Weather in Fürstenfeldbruck — Graph

°F

Fürstenfeldbruck Temperature Yesterday

Maximum temperature yesterday: 37 °F (at 12:20 PM)
Minimum temperature yesterday: 32 °F (at 6:50 AM)
Average temperature yesterday: 35 °F

High & Low Weather Summary for the Past Weeks

 TemperatureHumidityPressure
High59 °F (Feb 6, 1:20 PM)100% (Jan 28, 6:50 PM)30.45 "Hg (Jan 28, 6:50 PM)
Low32 °F (Jan 31, 3:50 PM)36% (Feb 6, 1:20 PM)29.27 "Hg (Feb 9, 6:20 PM)
Average44 °F74%30.03 "Hg
* Reported Jan 27 9:20 AM — Feb 11 9:50 AM, Fürstenfeldbruck, Weather by CustomWeather, © 2016

Note: Actual official high and low records may vary slightly from our data, if they occured in-between our weather recording intervals... More about our weather records

Advertising

Fürstenfeldbruck Weather History for the Previous 24 Hours

 ConditionsComfort  
Time TempWeatherWind HumidityBarometerVisibility
9:50 AM
Thu, Feb 11
36 °FPartly sunny.15 mph70%29.74 "HgN/A
9:20 AM34 °FBroken clouds.16 mph75%29.74 "HgN/A
8:50 AM34 °FPartly sunny.14 mph75%29.74 "HgN/A
8:20 AM34 °FBroken clouds.18 mph75%29.74 "HgN/A
7:50 AM34 °FBroken clouds.16 mph75%29.74 "HgN/A
7:20 AM32 °FLight snow. Passing clouds.17 mph87%29.71 "HgN/A
6:50 AM32 °FLight snow. Passing clouds.17 mph87%29.71 "HgN/A
8:20 PM
Wed, Feb 10
36 °FLight rain. Passing clouds.20 mph70%29.59 "HgN/A
7:50 PM36 °FLight snow. Passing clouds.21 mph70%29.59 "HgN/A
7:20 PM36 °FPassing clouds.21 mph70%29.56 "HgN/A
6:50 PM36 °FSnow flurries. Partly cloudy.21 mph70%29.56 "Hg6 mi
6:20 PM36 °FPartly cloudy.21 mph70%29.53 "HgN/A
5:50 PM36 °FPartly cloudy.21 mph70%29.53 "HgN/A
5:20 PM36 °FBroken clouds.23 mph70%29.53 "HgN/A
4:50 PM36 °FPartly sunny.25 mph70%29.50 "HgN/A
4:20 PM36 °FPartly sunny.22 mph70%29.50 "HgN/A
3:50 PM36 °FPartly sunny.22 mph70%29.50 "HgN/A
3:20 PM36 °FBroken clouds.25 mph70%29.50 "HgN/A
2:50 PM36 °FSprinkles. Broken clouds.25 mph70%29.50 "HgN/A
2:20 PM36 °FSprinkles. Broken clouds.24 mph70%29.50 "HgN/A
1:50 PM37 °FBroken clouds.21 mph65%29.47 "HgN/A
1:20 PM37 °FPartly sunny.20 mph65%29.50 "HgN/A
12:50 PM37 °FPartly sunny.22 mph65%29.50 "HgN/A
12:20 PM37 °FPartly sunny.20 mph70%29.50 "HgN/A
11:50 AM36 °FPartly sunny.22 mph75%29.50 "HgN/A
11:20 AM36 °FPartly sunny.14 mph81%29.47 "HgN/A
10:50 AM36 °FPartly sunny.14 mph75%29.47 "HgN/A
10:20 AM34 °FPartly sunny.16 mph87%29.47 "HgN/A
Weather by CustomWeather, © 2016

See weather overviewHow to use our weather pages